Hohenkirchen-Siegertsbrunn, Germany

12:51 AM CEST on October 20, 2017 (GMT +0200)
Hohenkirchen-Siegertsbrunn

Weather History for 10866 - January, 2014

Change the Weather History Date:

Saturday, January 4, 2014

  Actual Average Record
Temperature  
Mean Temperature 38 °F -  
Max Temperature 42 °F 35 °F - ()
Min Temperature 33 °F 23 °F - ()
Degree Days  
Heating Degree Days 28    
Moisture  
Dew Point 35 °F    
Average Humidity 86    
Maximum Humidity 100    
Minimum Humidity 70    
Precipitation  
Precipitation 0.00 in - - ()
Sea Level Pressure  
Sea Level Pressure 29.79 in    
Wind  
Wind Speed 5 mph ()    
Max Wind Speed 13 mph    
Max Gust Speed -    
Visibility 6.2 miles    
Events Fog , Rain    
T = Trace of Precipitation, MM = Missing Value Source: Averaged Metar Reports

Daily Weather History Graph

Daily Weather History Graph

Search for Another Location

Airport or City:

Trip Planner

Search our weather history database for the weather conditions in past years. The results will help you decide how hot, cold, wet, or windy it might be!

Date:

Astronomy

Jan. 04, 2014 Rise Set
Actual Time 8:03 AM CET 4:31 PM CET
Civil Twilight 7:27 AM CET 5:08 PM CET
Nautical Twilight 6:47 AM CET 5:47 PM CET
Astronomical Twilight 6:10 AM CET 6:25 PM CET
Moon 9:40 AM CET (1/4) 8:52 PM CET (1/4)
Length of Visible Light 9h 40m
Length of Day
8h 27m
Waxing Crescent, 13% of the Moon is Illuminated
Jan 4
Waxing Crescent
Jan 8
First Quarter
Jan 16
Full
Jan 24
Last Quarter
Jan 30
New

Hourly Weather History & Observations

Time (CET) Temp. Windchill Dew Point Humidity Pressure Visibility Wind Dir Wind Speed Gust Speed Precip Events Conditions
12:20 AM 35.6 °F 32.8 °F 32.0 °F 87% 30.01 in - South 3.5 mph - N/A   Clear
12:50 AM 41.0 °F 38.0 °F 32.0 °F 70% 30.01 in - SSW 4.6 mph - N/A   Clear
1:20 AM 39.2 °F 37.0 °F 32.0 °F 75% 30.01 in - WSW 3.5 mph - N/A   Clear
1:50 AM 37.4 °F 32.8 °F 30.2 °F 75% 30.01 in - SSW 5.8 mph - N/A   Clear
2:20 AM 39.2 °F 35.9 °F 32.0 °F 75% 30.01 in - SW 4.6 mph - N/A   Clear
2:50 AM 41.0 °F 37.1 °F 32.0 °F 70% 30.01 in - WSW 5.8 mph - N/A   Clear
3:20 AM 39.2 °F 37.0 °F 32.0 °F 75% 30.01 in - SW 3.5 mph - N/A   Clear
3:50 AM 39.2 °F 37.0 °F 32.0 °F 75% 30.01 in - Variable 3.5 mph - N/A   Clear
4:20 AM 37.4 °F 34.9 °F 32.0 °F 81% 30.01 in - SE 3.5 mph - N/A   Clear
4:50 AM 35.6 °F 32.8 °F 32.0 °F 87% 30.01 in - SSE 3.5 mph - N/A   Clear
5:20 AM 35.6 °F - 33.8 °F 93% 30.01 in - Variable 2.3 mph - N/A   Clear
5:50 AM 35.6 °F - 32.0 °F 87% 29.98 in - NNE 2.3 mph - N/A   Clear
6:20 AM 35.6 °F 32.8 °F 32.0 °F 87% 29.98 in - East 3.5 mph - N/A   Clear
6:50 AM 33.8 °F 30.8 °F 32.0 °F 93% 29.98 in - NE 3.5 mph - N/A   Clear
7:20 AM 35.6 °F 30.7 °F 32.0 °F 87% 29.98 in - East 5.8 mph - N/A   Clear
7:50 AM 35.6 °F 29.9 °F 32.0 °F 87% 29.95 in - ENE 6.9 mph - N/A   Clear
8:20 AM 35.6 °F 29.9 °F 33.8 °F 93% 29.95 in - NE 6.9 mph - N/A   Clear
8:50 AM 35.6 °F 29.9 °F 32.0 °F 87% 29.92 in - ENE 6.9 mph - N/A   Clear
9:20 AM 35.6 °F 28.6 °F 32.0 °F 87% 29.89 in - East 9.2 mph - N/A   Clear
9:50 AM 37.4 °F 32.1 °F 32.0 °F 81% 29.86 in - ENE 6.9 mph - N/A   Clear
10:20 AM 37.4 °F 32.8 °F 32.0 °F 81% 29.86 in - ENE 5.8 mph - N/A   Clear
10:50 AM 39.2 °F 33.6 °F 32.0 °F 75% 29.83 in - East 8.1 mph - N/A   Clear
11:20 AM 39.2 °F 33.6 °F 32.0 °F 75% 29.80 in 6.2 mi East 8.1 mph - N/A Rain Light Rain
11:50 AM 39.2 °F 33.6 °F 33.8 °F 81% 29.80 in 6.2 mi East 8.1 mph - N/A Rain Rain
12:20 PM 41.0 °F 34.3 °F 35.6 °F 81% 29.77 in 6.2 mi East 11.5 mph - N/A Rain Light Rain
12:50 PM 39.2 °F 32.5 °F 35.6 °F 87% 29.74 in 6.2 mi East 10.4 mph - N/A Rain Light Rain
1:20 PM 41.0 °F 35.2 °F 35.6 °F 81% 29.71 in 6.2 mi ENE 9.2 mph - N/A   Mostly Cloudy
1:50 PM 41.0 °F 35.8 °F 35.6 °F 81% 29.68 in 6.2 mi East 8.1 mph - N/A   Mostly Cloudy
2:20 PM 41.0 °F 38.0 °F 35.6 °F 81% 29.65 in 6.2 mi East 4.6 mph - N/A   Mostly Cloudy
2:50 PM 41.0 °F 38.0 °F 35.6 °F 81% 29.62 in 6.2 mi East 4.6 mph - N/A   Mostly Cloudy
3:20 PM 39.2 °F 35.0 °F 35.6 °F 87% 29.62 in - East 5.8 mph - N/A   Clear
3:50 PM 39.2 °F 35.9 °F 35.6 °F 87% 29.62 in 6.2 mi East 4.6 mph - N/A Rain Light Rain
4:20 PM 39.2 °F 37.0 °F 35.6 °F 87% 29.59 in 6.2 mi Variable 3.5 mph - N/A   Mostly Cloudy
4:50 PM 37.4 °F - 35.6 °F 93% 29.59 in 6.2 mi Variable 1.2 mph - N/A   Mostly Cloudy
5:20 PM 37.4 °F - 33.8 °F 87% 29.59 in 6.2 mi ENE 1.2 mph - N/A   Mostly Cloudy
5:50 PM 37.4 °F 34.9 °F 33.8 °F 87% 29.56 in 6.2 mi WNW 3.5 mph - N/A   Mostly Cloudy
6:20 PM 37.4 °F - 35.6 °F 93% 29.56 in - Variable 1.2 mph - N/A   Clear
6:50 PM 37.4 °F 33.8 °F 35.6 °F 93% 29.56 in - West 4.6 mph - N/A   Clear
7:20 PM 37.4 °F 30.8 °F 35.6 °F 93% 29.59 in - West 9.2 mph - N/A   Clear
7:50 PM 39.2 °F 33.6 °F 35.6 °F 87% 29.59 in 6.2 mi West 8.1 mph - N/A Rain Light Rain
8:20 PM 39.2 °F 33.6 °F 37.4 °F 93% 29.62 in 6.2 mi WSW 8.1 mph - N/A Rain Light Rain
8:50 PM 39.2 °F 32.5 °F 39.2 °F 100% 29.62 in 6.2 mi West 10.4 mph - N/A Rain Rain
9:20 PM 41.0 °F 33.9 °F 41.0 °F 100% 29.62 in 6.2 mi WSW 12.7 mph - N/A Rain Rain
9:50 PM 41.0 °F 35.2 °F 41.0 °F 100% 29.62 in 6.2 mi SSW 9.2 mph - N/A Rain Rain
10:20 PM 42.8 °F 38.6 °F 42.8 °F 100% 29.62 in 6.2 mi SW 6.9 mph - N/A Rain Light Rain
10:50 PM 41.0 °F 38.0 °F 41.0 °F 100% 29.62 in 6.2 mi South 4.6 mph - N/A Rain Light Rain
11:20 PM 41.0 °F 39.0 °F 41.0 °F 100% 29.59 in 6.2 mi East 3.5 mph - N/A   Mostly Cloudy
11:50 PM 39.2 °F 37.0 °F 39.2 °F 100% 29.56 in 6.2 mi NE 3.5 mph - N/A Fog Shallow Fog